Regional Weather Roundup
Issued by NWS New Orleans/Baton Rouge, LA

Home | Current Version | Previous Version | Text Only | Print | Product List | Glossary On
Versions: 1 2 3 4 5 6 7 8 9 10 11 12 13 14 15 16 17 18 19 20 21 22 23 24 25 26 27 28 29 30 31 32 33 34 35 36 37 38 39 40 41 42 43 44 45 46 47 48 49 50
000
ASUS44 KLIX 011712
RWRLIX
NEW ORLEANS REGIONAL WEATHER ROUNDUP
NATIONAL WEATHER SERVICE NEW ORLEANS LA
1200 PM CDT WED JUL 01 2015

NOTE: "FAIR" INDICATES FEW OR NO CLOUDS BELOW 12,000 FEET WITH NO
      SIGNIFICANT WEATHER AND/OR OBSTRUCTIONS TO VISIBILITY.
      SKY/WX - SKY CONDITION AND SIGNIFICANT WEATHER.
      TMP - AIR TEMPERATURE.     DP    - DEWPOINT TEMPERATURE.
      RH  - RELATIVE HUMIDITY.   PRES  - PRESSURE.
      HI  - HEAT INDEX.          WCI   - WIND CHILL INDEX.

*  THESE STATIONS ARE NOT NWS OR FAA STATIONS AND ARE NOT UNDER
   NWS QUALITY CONTROL.

LAZ038-040-048-061>063-065>067-069-011800-
SOUTHEAST LOUISIANA

CITY           SKY/WX    TMP DP  RH WIND       PRES   REMARKS
N.O. AUDUBON     N/A    N/A N/A N/A MISG        N/A
N.O. INTL ARPT PTSUNNY   88  74  63 S12       30.12F HX  96
N.O. LAKEFRONT MOSUNNY   91  72  53 CALM      30.12F HX  98
N.O. DOWNTOWN*   N/A     91  72  52 S9G16     30.13F HX  98
RESERVE*         N/A     90  74  58 SW10      30.12S HX  99
SLIDELL        SUNNY     88  71  57 SW6       30.11F
BATON ROUGE    PTSUNNY   88  76  67 SW12      30.11S HX  99
BOOTHVILLE     PTSUNNY   87  77  72 S9        30.15R HX  99
BELLE CHASSE   PTSUNNY   87  76  69 SW10      30.13S HX  97
BOGALUSA*        N/A     89  68  49 SW7       30.13F
GALLIANO*      CLOUDY    88  76  66 MISG      30.14S HX  98
NEW ROADS*     PTSUNNY  N/A N/A N/A S7        30.11S
GONZALES*        N/A     87  76  71 S6        30.11S HX  97
HAMMOND*       SUNNY     90  68  48 SW6       30.13F
HOUMA*         PTSUNNY   86  77  74 S7        30.14R HX  97
PORT FOURCHON* SUNNY     86  75  70 S12       30.15R HX  95

$$

MSZ070-080>082-011800-
SOUTHERN MISSISSIPPI

CITY           SKY/WX    TMP DP  RH WIND       PRES   REMARKS
MCCOMB         MOSUNNY   86  75  69 SW12      30.12S HX  95
GULFPORT       SUNNY     86  71  60 SW8       30.11F
BILOXI         SUNNY     86  72  63 S8        30.12F
PASCAGOULA     SUNNY     86  71  60 SW6       30.12F
STENNIS ARPT*  SUNNY     88  66  48 MISG      30.12F

$$

COASTAL OBSERVATIONS
LAKE AND NEARSHORE STATIONS

STATION/POSITION TIME  TEMP    WIND        PRES    WAVE
                       AIR SEA DIR/SP/G            HT/PER
                 (UTC) (F)     (DEG/KT/KT) (MB)    (FT/S)
PASCAGOULA       1600   85     230/  5/  6 1020.3
WAVELAND YACHT   1600   83 85  190/  6/ 12 1020.5
GRAND ISLE       1600   85 84  200/  7/ 10 1020.7
SOUTHWEST PASS   1600   83 83  180/ 10/ 11 1021.1
NEW CANAL        1600   86 85  240/  2/  5 1019.5
SHELL BEACH      1600   84 83  220/  8/ 11 1019.9

OFFSHORE STATIONS

STATION/POSITION TIME  TEMP    WIND        PRES    WAVE
                       AIR SEA DIR/SP/G            HT/PER
                 (UTC) (F)     (DEG/KT/KT) (MB)    (FT/S)
64 S DAUPHIN ISL 1650   83 85  180/  6/  8 1021.0    1/ 6

$$




USA.gov is the U.S. government's official web portal to all federal, state and local government web resources and services.